Montreal/Pierre Elliott Trudea, Quebec

11:26 AM EST on February 23, 2017 (GMT -0500)
Montreal International (Dorval)

Weather History for CYUL - January, 2014

Change the Weather History Date:

Saturday, January 25, 2014

  Actual Average Record
Temperature  
Mean Temperature 16 °F -  
Max Temperature 23 °F 24 °F 39 °F (1997)
Min Temperature 10 °F 8 °F -14 °F (2004)
Degree Days  
Heating Degree Days 48    
Moisture  
Dew Point 11 °F    
Average Humidity 74    
Maximum Humidity 86    
Minimum Humidity 40    
Precipitation  
Precipitation 0.04 in 0.08 in - ()
Sea Level Pressure  
Sea Level Pressure 29.41 in    
Wind  
Wind Speed 17 mph ()    
Max Wind Speed 29 mph    
Max Gust Speed 39 mph    
Visibility 6.9 miles    
Events Snow    
Averages and records for this station are not official NWS values.
T = Trace of Precipitation, MM = Missing Value Source: Averaged Metar Reports

Daily Weather History Graph

Daily Weather History Graph

Search for Another Location

Airport or City:

Trip Planner

Search our weather history database for the weather conditions in past years. The results will help you decide how hot, cold, wet, or windy it might be!

Date:

Astronomy

Jan. 25, 2014 Rise Set
Actual Time 7:23 AM EST 4:51 PM EST
Civil Twilight 6:51 AM EST 5:23 PM EST
Nautical Twilight 6:15 AM EST 5:59 PM EST
Astronomical Twilight 5:40 AM EST 6:34 PM EST
Moon 1:51 AM EST (1/25) 11:50 AM EST (1/25)
Length of Visible Light 10h 32m
Length of Day
9h 28m
Waning Crescent, 34% of the Moon is Illuminated
Jan 25
Waning Crescent
Jan 30
New
Feb 6
First Quarter
Feb 14
Full
Feb 22
Last Quarter

Hourly Weather History & Observations

Time (EST) Temp. Windchill Dew Point Humidity Pressure Visibility Wind Dir Wind Speed Gust Speed Precip Events Conditions
12:00 AM 14.0 °F -2.5 °F 1.4 °F 57% 29.71 in 15.0 mi SSE 17.3 mph 23.0 mph N/A   Overcast
1:00 AM 15 °F - 2 °F 40% 29.68 in 15 mi SSE 19.6 mph - -   Overcast
1:00 AM 14.0 °F -3.4 °F 1.4 °F 57% 29.68 in 15.0 mi SSE 19.6 mph - N/A   Overcast
2:00 AM 14.0 °F -3.4 °F 1.4 °F 57% 29.65 in 15.0 mi SSE 19.6 mph 25.3 mph N/A   Overcast
3:00 AM 15.8 °F 0.3 °F 1.4 °F 53% 29.63 in 15.0 mi SSE 16.1 mph - N/A   Overcast
3:08 AM 15.8 °F -0.2 °F 1.4 °F 53% 29.63 in 12.0 mi SSE 17.3 mph - N/A Snow Light Snow
4:00 AM 14.0 °F -1.4 °F 8.6 °F 79% 29.60 in 2.5 mi SSE 15.0 mph 20.7 mph N/A Snow Light Snow
5:00 AM 14.0 °F -3.4 °F 8.6 °F 79% 29.57 in 1.8 mi SSE 19.6 mph - N/A Snow Light Snow
6:00 AM 14.0 °F -2.0 °F 10.4 °F 86% 29.56 in 1.8 mi SSE 16.1 mph 24.2 mph N/A Snow Light Snow
7:00 AM 15 °F - 10 °F 73% 29.54 in 2 mi SSE 19.6 mph - - Snow Light Snow
7:00 AM 15.8 °F -0.6 °F 10.4 °F 79% 29.54 in 2.5 mi SSE 18.4 mph - N/A Snow Light Snow
8:00 AM 14.0 °F -4.3 °F 10.4 °F 86% 29.51 in 1.5 mi SSE 21.9 mph - N/A Snow Light Snow
9:00 AM 15.8 °F -1.1 °F 12.2 °F 86% 29.50 in 1.2 mi SSE 19.6 mph - N/A Snow Light Snow
9:39 AM 15.8 °F -1.1 °F 12.2 °F 86% 29.48 in 1.5 mi SSE 19.6 mph 25.3 mph N/A Snow Light Snow
10:00 AM 15.8 °F 0.3 °F 12.2 °F 86% 29.47 in 3.0 mi SSE 16.1 mph 24.2 mph N/A Snow Light Snow
10:06 AM 15.8 °F -1.9 °F 10.4 °F 79% 29.47 in 6.0 mi SSE 21.9 mph - N/A Snow Light Snow
10:34 AM 17.6 °F 0.9 °F 8.6 °F 68% 29.46 in 1.8 mi SSE 20.7 mph 27.6 mph N/A Snow Light Snow
11:00 AM 17.6 °F 0.9 °F 10.4 °F 73% 29.44 in 2.0 mi SSE 20.7 mph - N/A Snow Light Snow
11:12 AM 17.6 °F 1.7 °F 12.2 °F 79% 29.43 in 4.0 mi SSE 18.4 mph 24.2 mph N/A Snow Light Snow
12:00 PM 19.4 °F 3.6 °F 10.4 °F 68% 29.39 in 8.0 mi SSE 19.6 mph 26.5 mph N/A Snow Light Snow
12:29 PM 19.4 °F 3.2 °F 10.4 °F 68% 29.37 in 10.0 mi SSE 20.7 mph 28.8 mph N/A Snow Low Drifting Snow
1:00 PM 20 °F - 10 °F 54% 29.35 in 10 mi SSE 19.6 mph - - Snow Light Snow
1:00 PM 19.4 °F 2.8 °F 10.4 °F 68% 29.35 in 10.0 mi SSE 21.9 mph - N/A Snow Low Drifting Snow
1:29 PM 21.2 °F 5.6 °F 12.2 °F 68% 29.34 in 8.0 mi SSE 20.7 mph 28.8 mph N/A Snow Light Snow
2:00 PM 19.4 °F 3.6 °F 12.2 °F 74% 29.32 in 8.0 mi SSE 19.6 mph 26.5 mph N/A Snow Light Snow
2:42 PM 19.4 °F 4.1 °F 14.0 °F 80% 29.31 in 3.0 mi SSE 18.4 mph 26.5 mph N/A Snow Light Snow
2:48 PM 19.4 °F 3.2 °F 14.0 °F 80% 29.31 in 2.0 mi SSE 20.7 mph - N/A Snow Light Snow
3:00 PM 19.4 °F 3.6 °F 14.0 °F 80% 29.31 in 2.0 mi SSE 19.6 mph - N/A Snow Light Snow
3:42 PM 19.4 °F 5.5 °F 15.8 °F 86% 29.30 in 1.5 mi SSE 15.0 mph 25.3 mph N/A Snow Light Snow
4:00 PM 19.4 °F 5.5 °F 15.8 °F 86% 29.30 in 1.5 mi SSE 15.0 mph 25.3 mph N/A Snow Light Snow
4:41 PM 19.4 °F 3.2 °F 15.8 °F 86% 29.29 in 2.2 mi SSE 20.7 mph - N/A Snow Light Snow
5:00 PM 19.4 °F 4.1 °F 15.8 °F 86% 29.29 in 3.0 mi SSE 18.4 mph - N/A Snow Light Snow
5:24 PM 21.2 °F 6.8 °F 15.8 °F 80% 29.28 in 8.0 mi SSE 17.3 mph - N/A Snow Light Snow
6:00 PM 21.2 °F 6.8 °F 14.0 °F 74% 29.27 in 10.0 mi SSE 17.3 mph 27.6 mph N/A Snow Light Snow
7:00 PM 21 °F - 14 °F 63% 29.27 in 10 mi SSE 17.3 mph - - Snow Light Snow
7:00 PM 21.2 °F 7.3 °F 14.0 °F 74% 29.27 in 10.0 mi SSE 16.1 mph 23.0 mph N/A Snow Light Snow
7:28 PM 21.2 °F 6.8 °F 14.0 °F 74% 29.26 in 12.0 mi SSE 17.3 mph - N/A Snow Low Drifting Snow
8:00 PM 21.2 °F 6.8 °F 14.0 °F 74% 29.26 in 12.0 mi SSE 17.3 mph - N/A Snow Low Drifting Snow
9:00 PM 21.2 °F 8.9 °F 14.0 °F 74% 29.25 in 12.0 mi SSE 12.7 mph - N/A   Overcast
9:06 PM 21.2 °F 10.1 °F 14.0 °F 74% 29.25 in 12.0 mi South 10.4 mph - N/A Snow Light Snow
10:00 PM 23.0 °F 8.7 °F 17.6 °F 80% 29.25 in 5.0 mi SW 18.4 mph - N/A Snow Light Snow
10:30 PM 19.4 °F 3.2 °F 14.0 °F 80% 29.27 in 12.0 mi WSW 20.7 mph 28.8 mph N/A   Scattered Clouds
10:42 PM 19.4 °F 2.5 °F 12.2 °F 74% 29.28 in 8.0 mi West 23.0 mph 36.8 mph N/A Snow Light Snow Showers
11:00 PM 17.6 °F -1.6 °F 12.2 °F 79% 29.29 in 2.2 mi West 28.8 mph 36.8 mph N/A Snow Light Snow Showers
11:43 PM 10.4 °F -11.0 °F 3.2 °F 73% 29.34 in 8.0 mi West 27.6 mph 39.1 mph N/A Snow Low Drifting Snow